Location: Eckley
(40.9930°N, 75.8630°W)
Time: 16:39:37
(UTC-04:00)

Daily predictions for brighter satellites

Satellite Brightness Start Highest point End
(mag) Time Altitude Azimuth Time Altitude Azimuth Time Altitude Azimuth
NOAA 12 4.3 19:42:22 10° SSE 19:47:41 81° WSW 19:53:00 10° NNW
Lacrosse 5 3.6 19:46:09 10° W 19:50:42 32° NNW 19:55:15 10° NNE
Cosmos 1833 Rocket 2.8 19:50:12 10° NNW 19:55:47 60° ENE 20:01:18 10° SE
GP-B 4.0 19:54:33 10° SE 19:58:20 28° E 20:02:08 10° NNE
Cosmos 2344 4.4 19:53:25 10° SW 20:00:58 60° NW 20:09:38 10° NNE
ATLAS 5 CENTAUR R/B 1.7 19:58:54 10° SSW 20:03:32 73° ESE 20:08:35 10° NE
CZ-2D R/B 3.9 20:01:33 10° SE 20:05:08 36° ENE 20:08:43 10° N
Cosmos 482 Debris 4.0 20:05:05 10° NNW 20:06:38 22° NNE 20:07:45 13° ENE
Lacrosse 5 rocket 1.2 20:02:56 10° NW 20:06:52 62° NE 20:10:29 11° SE
Cosmos 1805 3.5 20:03:21 10° SSW 20:07:14 76° W 20:11:10 10° N
Cosmos 158 Rocket 4.0 20:02:27 10° NNW 20:07:37 69° ENE 20:12:52 10° SSE
ALOS 2.3 20:03:07 10° SSE 20:07:47 88° WSW 20:12:30 10° NNW
Cosmos 372 Rocket 3.9 20:03:10 10° SSW 20:08:16 76° ESE 20:13:26 10° NNE
Cosmos 2278 Rocket 3.8 20:04:38 10° SW 20:09:55 39° WNW 20:15:14 10° N
Resurs 01 Rocket 1.6 20:06:55 10° SSE 20:11:16 63° ENE 20:15:39 10° N
Cosmos 1733 3.6 20:11:29 10° SSE 20:15:09 42° E 20:18:50 10° NNE
CZ-4C R/B 3.4 20:12:06 10° SE 20:15:17 16° ESE 20:18:39 10° ENE
Cosmos 1605 Rocket 4.4 20:10:10 10° SSW 20:16:26 71° W 20:22:49 10° N
USA 186 2.2 20:16:04 19° E 20:16:43 21° ENE 20:18:30 10° NNE
Helios 1B rocket 3.2 20:15:52 10° NE 20:19:31 30° E 20:23:09 10° SSE
Cosmos 2251 Rocket 4.3 20:14:44 10° N 20:19:32 33° ENE 20:23:30 14° ESE
Meteor 1-21 Rocket 4.3 20:14:03 10° N 20:19:57 85° E 20:25:52 10° S
BREEZE-M DEB (TANK) 4.0 20:18:54 10° NNW 20:20:38 18° NNE 20:22:27 11° ENE
Cosmos 1269 Rocket 4.2 20:15:23 10° NNW 20:20:40 76° WSW 20:25:56 10° SSE
COSMOS 2487 2.9 20:17:16 10° NNW 20:20:49 65° WSW 20:24:20 10° S
Cosmos 2100 Rocket 4.1 20:16:09 10° SSE 20:22:18 56° E 20:28:30 10° NNE
Cosmos 2151 4.5 20:20:09 10° NNE 20:23:05 18° ENE 20:24:19 16° E
Cosmos 1470 2.7 20:23:26 10° S 20:27:22 66° E 20:31:19 10° NNE
SAR-Lupe-4 3.9 20:27:04 13° SE 20:30:01 44° ENE 20:33:28 10° N
PSLV R/B 4.2 20:27:20 10° SW 20:30:04 27° SSE 20:31:00 23° ESE
Cosmos 2297 4.5 20:24:51 10° SW 20:30:28 57° WNW 20:36:09 10° NNE
Cosmos 1408 Rocket 3.6 20:28:28 10° N 20:32:58 86° W 20:37:26 10° S
H-2A R/B 3.3 20:31:59 10° S 20:35:51 62° W 20:39:46 10° NNW
TIMED 4.4 20:32:24 10° S 20:36:43 67° ESE 20:41:04 10° NNE
Cosmos 494 Rocket 4.3 20:32:43 10° N 20:37:39 46° ENE 20:40:57 20° SE
Spot 2 Rocket 3.7 20:34:13 10° S 20:39:18 74° WSW 20:44:27 10° NNW
OAO 2 Rocket 4.3 20:34:58 10° SW 20:39:32 32° SSE 20:41:53 22° ESE
Cosmos 2082 Rocket 2.9 20:34:48 10° NNW 20:40:20 54° WSW 20:45:47 10° S
Resurs 1-3 3.9 20:37:30 10° S 20:41:52 71° WSW 20:46:15 10° NNW
GPS 2-05 Rocket1 4.0 20:40:20 10° WSW 20:43:32 32° S 20:44:44 25° SSE
Cosmos 1184 Rocket 2.9 20:44:06 10° N 20:47:26 55° ENE 20:48:38 33° SE
Cosmos 1802 Rocket 3.9 20:42:30 10° S 20:48:34 70° E 20:54:44 10° NNE
SAR-Lupe-1 4.0 20:46:28 22° SSE 20:48:36 67° ENE 20:52:11 10° N
Cosmos 1340 Rocket 2.8 20:45:05 10° NNW 20:49:07 81° W 20:53:04 10° S
Helios 1A 2.9 20:45:49 14° SSE 20:49:23 77° ENE 20:53:36 10° N
Cosmos 1842 Rocket 3.6 20:45:31 10° S 20:49:48 53° E 20:54:04 10° NNE
CZ-4B DEB 2.8 20:49:47 43° ESE 20:50:25 52° ENE 20:53:26 10° N
Cosmos 389 Rocket 2.8 20:52:52 41° ESE 20:53:06 41° E 20:56:27 10° NNE
SeaSat 1 3.2 20:51:11 10° S 20:55:56 50° WSW 21:00:46 10° NW
Meteor 1-16 Rocket 4.3 20:50:19 10° S 20:56:05 62° E 21:01:56 10° NNE
Envisat 3.0 20:54:15 21° SSE 20:57:37 63° ENE 21:02:38 10° N
Cosmos 1356 Rocket 3.3 20:55:19 10° N 20:59:22 61° ENE 21:00:45 37° SE
Cosmos 1674 4.3 20:56:19 10° NNW 20:59:49 35° W 21:03:19 10° SSW
Cosmos 1271 Rocket 4.0 20:56:50 10° SSW 21:00:41 45° WNW 21:04:34 10° N
Cosmos 1459 Rocket 4.1 20:56:07 10° S 21:02:21 77° W 21:08:32 10° N
ISS -1.7 21:00:59 10° W 21:03:46 26° NNW 21:06:01 13° NNE
ERS-1 Rocket 3.5 21:03:10 34° E 21:04:21 39° ENE 21:09:00 10° N
Meteor 1-11 4.2 20:58:53 10° N 21:04:25 59° ENE 21:07:16 28° SSE
Meteor 2-17 Rocket 4.3 20:59:16 10° S 21:05:25 80° E 21:11:35 10° N
SL-14 R/B 3.1 21:02:50 10° N 21:06:44 73° E 21:07:46 46° SSE
Cosmos 2061 Rocket 4.2 21:03:10 10° SSW 21:09:33 75° W 21:16:02 10° N
Geosat 3.9 21:04:36 10° NNE 21:09:40 90° W 21:14:41 10° SSW
Cosmos 2173 Rocket 4.4 21:06:59 10° SSW 21:13:07 65° W 21:19:24 10° N
Cosmos 2233 Rocket 4.4 21:12:07 35° ESE 21:13:12 38° E 21:18:48 10° NNE
Cosmos 1626 3.8 21:13:49 10° NNE 21:15:35 21° NE 21:15:35 21° NE
Cosmos 1328 4.0 21:14:25 10° NNW 21:18:21 69° W 21:19:50 36° SSW
Cosmos 1864 Rocket 4.4 21:13:42 10° S 21:19:59 71° E 21:26:16 10° NNE
H-2A R/B 3.7 21:28:33 20° NE 21:28:33 20° NE 21:31:28 10° NNE
Cosmos 2369 Rocket 2.0 21:23:06 10° SSW 21:28:42 70° ESE 21:34:18 10° NNE
Meteor 2-1 Rocket 4.1 21:27:08 29° S 21:30:10 71° E 21:35:47 10° NNE
Cosmos 2221 3.2 21:33:23 41° NE 21:33:23 41° NE 21:36:26 10° NNE
Cosmos 2058 2.8 21:29:16 10° N 21:33:13 80° N 21:33:13 80° N
Lacrosse 5 4.5 21:32:29 10° NW 21:35:07 14° N 21:37:45 10° NNE
Cosmos 1703 4.3 21:32:17 10° N 21:34:51 37° NNE 21:34:51 37° NNE
Terra 4.2 21:39:38 11° NE 21:39:38 11° NE 21:40:00 10° NNE
SPOT 5 3.5 21:40:47 46° ENE 21:40:47 46° ENE 21:45:26 10° N
Cosmos 1939 Rocket 3.7 21:40:21 42° SW 21:41:13 49° W 21:45:16 10° NNW
Cosmos 1943 Rocket 3.8 21:48:53 21° NE 21:48:53 21° NE 21:50:44 10° NE
Lacrosse 5 rocket 3.7 21:43:39 10° W 21:45:33 13° WSW 21:46:14 13° SW
CZ-3B DEB 4.1 21:41:40 10° WNW 21:46:16 18° NNW 21:49:16 10° NNE
ATLAS 5 CENTAUR R/B 4.4 21:45:20 10° W 21:48:51 19° NW 21:52:35 10° N
NOAA 11 4.1 21:49:57 66° ENE 21:49:57 66° ENE 21:55:19 10° N
Cosmos 2263 4.1 21:52:40 74° ENE 21:52:40 74° ENE 21:57:57 10° NNE
USA 215 3.1 21:46:00 10° NE 21:52:31 68° SE 21:58:59 10° SW
Cosmos 1725 Rocket 4.4 21:50:49 10° SSW 21:56:56 59° W 22:03:03 10° N
Cosmos 1805 Rocket 4.5 21:52:40 10° N 21:55:42 43° N 21:55:42 43° N
Cosmos 2151 4.3 21:56:39 10° NNW 22:00:30 35° W 22:00:57 34° WSW
CZ-4C R/B 2.4 21:57:41 10° SW 22:02:54 68° NW 22:08:52 10° NNE
MetOp-A 4.1 22:07:06 78° NW 22:07:06 78° NW 22:12:10 10° NNW
Cosmos 2346 Rocket 4.4 22:02:21 10° N 22:08:38 86° W 22:09:02 79° SSW
SPOT 1/Viking Rocket 4.4 22:13:12 42° NNE 22:13:12 42° NNE 22:16:48 10° N
ARGOS 3.5 22:17:29 58° N 22:17:29 58° N 22:21:46 10° NNW
USA 267 4.0 22:24:10 40° NE 22:24:48 41° NNE 22:30:49 10° NW
Cosmos 2297 Rocket 4.5 22:59:32 10° N 23:01:13 15° NNE 23:01:13 15° NNE
H-2A R/B 3.8 23:09:10 29° NW 23:09:10 29° NW 23:11:51 10° NNW
Terra 4.3 23:18:31 18° NNW 23:18:31 18° NNW 23:19:42 10° NNW
ATLAS 3B R/B 4.1 23:20:37 31° NNE 23:20:37 31° NNE 23:24:05 10° NNE
Cosmos 1943 Rocket 4.2 23:30:17 24° NW 23:30:17 24° NW 23:33:59 10° N
Cosmos 2227 Rocket 4.3 23:25:17 10° N 23:27:14 20° N 23:27:14 20° N
USA 215 4.3 23:29:14 10° NE 23:36:09 40° NW 23:41:19 10° W
